STARLINK-3099 (49446 NORAD) Tracking and Keplerian Element Data

This shows tracking and keplerian element data for the satellite.

Feedback or suggestion? Click here.




ElementValue
Catalog49446
NameSTARLINK-3099
Epoch Orbit370
Epoch Day15.91668981
Epoch Year2022
RAAN179.3426
Inclination53.2151
Eccentricity0.0002953
Argument of Perigee10.5057
Mean Anonmoly202.2861
Mean Motion15.73216994
Decay Rate-0.00034268
L11 49446U 21104AQ 22015.91668981 -.00034268 00000+0 -24048-3 0 9998
L22 49446 53.2151 179.3426 0002953 10.5057 202.2861 15.73216994 3703

Live tracking and technical data element details for STARLINK-3099 (NORAD 49446). STARLINK-3099 can be tracked NOW for your location showing map with azimuth and elevation plus other details from your city location.

Track the satellite on the map from your city or location and see movement details for azimuth, elevation, latitude, longitude, range, height, and movement on the map or in text.







IsCatalogInMostPopularTable: catalog: 49446, numindb: 8
Update: records affected: 1



GetName: 49446 STARLINK-3099

Hit Count: updated at: Thu, 20 Jan 2022 18:14:22 GMT